Flag for Germany Weather past 2 weeks in Düren, North Rhine-Westphalia, Germany

Now
64 °F

Mild.


Feels Like: 64 °F
Forecast: 60 / 70 °F
Wind: 5 mph from West

Location: Noervenich

Current Time: Jul 12, 2014 at 9:58:43 PM

Latest Report: Jul 12, 2014 at 9:20 PM


Visibility: 3 mi

Pressure: 29.92 "Hg

Humidity: 88%

Dew point: 61 °F

Location of DürenLocation

Historic Weather in Düren — Graph

°F

Düren temperature yesterday

Maximum temperature yesterday: 72 °F (at 2:20 PM)
Minimum temperature yesterday: 61 °F (at 12:20 AM)
Average temperature yesterday: 65 °F

Past Weeks' High & Low Weather Summary

 TemperatureHumidityPressure
High84 °F (Jul 4, 1:20 PM)100% (Jun 27, 10:20 PM)30.24 "Hg (Jun 27, 10:20 PM)
Low46 °F (Jul 1, 5:20 AM)30% (Jul 3, 5:20 PM)29.68 "Hg (Jul 6, 6:20 PM)
Average63 °F78%29.93 "Hg
* Reported Jun 27 8:20 PM — Jul 12 8:20 PM, Düren, Weather by CustomWeather, © 2014

Note: Actual official high and low records may vary slightly from our data, if they occured in-between our weather recording intervals... More about our weather records

Advertising

Düren weather history for previous 24 hours

 ConditionsComfort  
Time TempWeatherWind HumidityBarometerVisibility
8:20 PM
Jul 12
64 °FMild.7 mph83%29.92 "Hg3 mi
7:20 PM64 °FBroken clouds.7 mph83%29.92 "HgN/A
6:20 PM66 °FPartly sunny.8 mph83%29.92 "HgN/A
5:20 PM64 °FBroken clouds.10 mph83%29.92 "HgN/A
4:20 PM64 °FBroken clouds.10 mph88%29.92 "HgN/A
3:20 PM66 °FPartly sunny.9 mph83%29.92 "Hg5 mi
2:20 PM64 °FPartly sunny.7 mph94%29.92 "Hg4 mi
1:20 PM63 °FFog.8 mph94%29.95 "Hg3 mi
12:20 PM61 °FDrizzle. Fog.7 mph100%29.95 "Hg3 mi
12:00 PM61 °FDrizzle. Fog.6 mph100%29.95 "Hg3 mi
11:20 AM61 °FCool.7 mph100%29.95 "Hg3 mi
10:20 AM61 °FCool.7 mph94%29.95 "Hg1 mi
9:20 AM61 °FCool.8 mph100%29.95 "Hg2 mi
8:20 AM61 °FCool.8 mph100%29.95 "Hg1 mi
7:20 AM61 °FCool.7 mph94%29.95 "Hg2 mi
6:20 AM63 °FMild.6 mph88%29.95 "Hg2 mi
5:20 AM63 °FFog.6 mph88%29.95 "Hg2 mi
4:20 AM63 °FFog.6 mph94%29.95 "Hg2 mi
3:20 AM63 °FFog.6 mph94%29.95 "Hg2 mi
2:20 AM64 °FFog.7 mph88%29.95 "Hg2 mi
1:20 AM64 °FFog.7 mph88%29.95 "Hg3 mi
12:20 AM64 °FFog.7 mph88%29.95 "Hg3 mi
11:20 PM
Jul 11
64 °FPartly cloudy.6 mph83%29.95 "Hg5 mi
10:20 PM66 °FBroken clouds.9 mph83%29.98 "HgN/A
9:20 PM68 °FOvercast.7 mph78%29.95 "HgN/A
Weather by CustomWeather, © 2014

See weather overviewHow to use our weather pages